Theta_e
311 315 316 317 320 321 323 323 319 318 319 319 322 321 317 316 318 318 317 317 313 311 314 315 317 316 315 321 316 308 311 313 312 315 316 317 318 318 320 321 321 321 321 320 319 318 319 319 319 320 319 318 318 318 317 317 315 313 311 310 310 309 308 308 308 308 307 306 306 306 307 307 306 306 306 306 305 305 305 305 306 306 306 307 308 310
314 315 319 322 323 321 322 323 321 318 319 320 320 318 317 318 319 317 316 320 317 311 315 318 318 318 318 325 320 311 313 313 310 312 313 315 316 317 319 320 321 321 320 320 319 318 319 319 319 319 319 319 318 318 318 316 315 314 311 310 310 310 309 308 307 307 307 307 308 308 307 306 306 306 306 306 306 306 305 305 305 305 304 305 306 306
318 317 320 319 319 319 321 323 322 321 322 323 320 317 320 320 318 319 320 324 321 314 317 321 318 324 328 330 326 317 314 313 311 312 313 315 315 316 318 319 320 321 321 320 320 319 319 319 319 319 319 319 317 317 318 316 315 315 312 310 310 310 309 308 307 307 308 309 309 308 308 307 307 307 307 306 307 306 306 305 304 304 304 304 305 306
315 319 317 314 316 319 321 321 319 319 323 325 321 317 321 319 316 322 323 324 322 314 317 321 319 328 334 332 332 319 310 311 312 312 312 312 314 316 318 319 319 320 320 320 320 320 319 319 319 319 319 318 317 317 317 317 316 315 313 310 311 311 309 309 308 308 309 309 308 308 308 308 308 308 308 307 307 307 306 306 305 304 303 303 303 304
313 316 312 314 321 318 316 320 319 317 320 327 325 318 320 322 317 319 322 326 327 318 318 320 320 334 336 330 333 321 311 314 311 311 313 312 312 314 316 318 318 320 320 320 320 320 320 319 319 319 318 318 317 318 318 317 316 316 313 311 311 311 310 309 309 310 310 309 308 308 308 309 309 308 308 308 307 307 307 306 306 305 304 304 303 303
313 311 309 315 321 319 317 320 323 321 321 328 331 324 322 325 320 318 322 326 328 323 319 314 317 337 337 328 331 326 320 321 314 312 313 312 313 313 314 317 317 319 320 320 321 319 320 319 319 319 317 318 318 318 318 317 317 316 314 312 311 311 310 310 310 310 310 309 308 308 308 309 309 308 309 309 308 308 308 307 306 306 305 304 304 304
314 312 313 318 322 322 319 320 323 323 320 322 327 326 324 325 322 320 321 321 322 321 317 315 318 329 333 331 332 325 322 324 318 317 314 309 312 313 313 315 316 318 319 319 320 319 319 319 318 318 318 319 319 319 318 317 317 316 315 313 312 312 311 311 310 310 311 310 308 308 308 308 308 308 309 309 309 308 308 308 307 306 306 305 305 304
315 315 317 322 327 324 320 323 324 321 320 322 323 324 325 325 323 323 321 319 323 321 319 324 321 318 326 332 327 320 319 321 321 322 318 310 311 312 312 313 314 316 317 318 320 320 319 319 318 319 319 320 320 319 318 317 317 317 316 314 313 313 312 311 311 310 311 310 309 308 308 309 309 308 309 309 310 309 309 308 308 307 306 306 305 305
313 314 315 321 325 321 323 330 324 318 320 325 323 321 323 323 323 327 324 320 321 317 320 330 321 314 326 331 323 318 317 320 322 323 321 313 311 311 310 311 312 313 315 316 318 319 319 320 319 320 320 320 320 319 318 318 317 317 316 314 313 313 312 312 311 310 311 311 309 308 309 309 309 309 309 310 310 310 310 309 308 307 306 306 305 305
311 310 312 317 321 322 329 330 321 319 320 319 317 317 317 318 321 325 324 321 319 315 320 329 320 313 324 330 324 317 314 319 322 321 317 310 309 311 310 310 311 311 312 314 316 318 319 319 319 320 320 320 319 319 318 317 317 317 317 315 313 313 313 312 311 310 311 311 310 309 309 309 310 310 309 310 310 310 310 310 308 308 307 306 306 306
309 308 312 315 316 321 326 318 312 315 314 312 317 319 316 319 322 323 324 322 317 316 321 327 320 313 318 327 325 318 314 316 317 316 314 309 308 310 309 310 311 311 312 313 314 317 318 319 319 319 320 319 319 319 318 317 317 317 317 316 314 313 314 313 312 311 311 311 310 309 309 309 310 310 309 309 310 310 310 310 309 308 307 307 306 306
310 309 313 314 312 314 316 313 308 309 310 313 321 322 316 318 320 320 323 319 315 320 322 321 317 311 315 322 320 317 316 314 313 313 313 311 308 308 310 311 312 312 312 312 313 316 318 319 319 319 319 319 319 318 318 317 317 317 317 317 316 314 314 314 312 312 311 311 311 310 309 310 310 310 310 309 310 310 310 310 310 310 308 308 307 306
316 314 312 311 311 311 314 316 311 309 314 316 319 320 316 316 318 318 319 317 317 320 316 314 314 312 317 320 314 314 315 312 310 310 310 310 308 308 310 311 312 312 312 312 313 315 317 318 319 319 320 320 319 319 319 318 318 318 318 317 317 315 315 314 313 312 311 311 311 310 310 310 310 310 309 309 310 310 310 310 311 311 310 308 308 307
321 320 314 310 311 311 313 318 315 314 316 314 315 319 318 316 316 318 317 314 316 318 314 312 314 315 319 317 312 313 313 310 310 309 309 308 307 309 311 311 311 311 311 312 313 314 316 318 318 319 319 319 319 319 318 319 318 318 318 317 317 316 315 314 314 313 312 311 311 311 311 310 311 310 310 310 310 310 310 310 311 311 311 310 308 307
316 318 317 313 311 310 312 315 317 321 316 312 315 315 316 320 319 318 318 314 314 317 314 311 313 321 321 313 312 312 308 309 310 309 309 307 306 309 311 311 312 311 311 312 313 314 315 317 318 319 319 319 319 319 319 319 319 318 318 318 318 317 316 315 315 314 314 313 312 311 311 311 311 311 311 311 310 310 310 310 311 311 311 310 309 308
310 313 318 312 308 308 310 309 311 317 314 309 311 312 313 320 320 316 313 314 316 315 315 313 315 323 320 312 312 311 309 309 308 307 308 307 306 307 309 310 311 312 313 312 312 314 315 317 318 318 319 319 318 319 319 318 318 318 318 318 318 318 316 315 315 315 315 314 313 312 311 311 311 311 311 311 311 310 310 310 311 312 312 311 310 309
310 315 319 312 308 309 309 308 307 310 314 311 309 312 314 314 319 317 310 311 314 314 316 315 314 318 316 313 315 314 312 310 308 307 307 306 307 307 307 308 309 310 312 313 314 314 314 316 317 318 319 319 319 319 319 318 318 318 318 318 317 317 316 316 315 315 316 316 314 313 312 312 312 312 312 312 312 311 310 310 310 311 313 312 311 310
310 317 321 313 310 310 306 307 308 306 310 314 312 314 313 310 318 320 314 315 314 314 319 317 313 314 316 316 316 313 311 310 310 308 306 306 306 306 307 307 308 309 309 310 312 313 315 315 316 316 317 318 318 319 319 319 318 318 317 317 318 317 317 316 315 315 316 316 316 315 313 313 313 313 313 313 313 312 311 310 310 310 311 312 312 310
309 315 321 314 309 311 308 309 313 309 307 310 312 312 312 315 320 318 315 318 314 312 320 319 312 313 318 320 316 311 310 310 310 309 308 307 306 305 307 307 308 309 309 309 309 310 312 314 315 316 316 317 317 318 318 319 319 318 317 318 317 317 317 317 316 315 315 316 316 316 315 314 314 314 314 314 314 314 312 310 310 310 311 312 312 311
310 312 318 315 309 309 312 312 316 317 309 309 312 311 314 320 321 315 314 317 315 313 318 317 312 314 318 318 315 312 312 311 309 310 310 307 305 305 306 307 309 309 309 310 309 309 310 311 313 314 315 317 317 317 318 318 319 319 318 318 318 317 317 317 316 316 315 316 317 317 317 316 316 316 315 315 316 315 313 311 310 310 311 312 312 312
312 309 314 322 314 309 314 313 315 318 312 311 315 314 313 312 311 311 311 311 313 316 318 316 314 317 318 314 313 312 315 313 310 310 309 305 304 306 306 307 309 309 309 309 309 309 310 310 311 312 313 315 316 317 318 318 319 319 319 319 319 318 318 317 317 316 316 316 317 317 317 317 317 317 317 317 317 317 315 312 310 311 311 312 312 312
313 311 315 322 316 314 318 313 310 312 310 312 315 313 313 313 311 312 311 311 311 313 315 314 314 320 318 313 314 316 315 313 307 306 307 305 305 306 307 309 309 309 309 309 309 309 309 310 310 311 312 314 315 316 317 318 318 318 319 319 320 320 319 318 318 317 317 316 317 317 318 318 318 317 317 318 318 318 317 314 311 311 311 312 312 312
312 315 315 316 315 315 314 308 304 305 308 311 312 310 313 316 316 315 316 317 312 309 311 312 314 321 319 314 316 315 310 307 304 304 304 304 305 306 307 309 309 309 309 309 309 309 309 309 309 310 310 311 312 313 314 315 316 317 318 318 319 320 320 320 320 319 318 317 317 317 317 318 318 318 318 318 318 319 319 316 313 312 312 312 312 313
312 314 312 315 319 317 312 308 305 306 309 309 308 308 311 314 315 317 319 318 313 311 313 312 313 321 321 315 310 306 303 304 304 305 305 305 306 307 308 309 309 309 309 308 309 308 308 309 309 309 309 309 310 311 312 312 313 314 315 316 317 318 319 320 320 320 320 319 318 317 318 318 318 318 318 318 318 318 319 318 315 313 313 312 312 312
311 316 314 313 317 316 313 314 312 312 312 310 308 307 308 311 312 312 314 312 310 311 313 313 315 319 318 314 308 304 304 304 304 305 306 306 307 308 308 309 308 308 308 308 308 308 308 308 308 308 308 308 309 309 309 310 310 310 311 312 314 315 317 319 319 320 321 320 320 319 318 318 317 318 318 318 319 318 319 319 317 315 314 313 313 313
309 315 314 312 313 312 312 314 316 316 312 308 308 306 306 311 311 310 311 310 311 312 310 313 318 315 312 312 311 310 309 307 305 305 306 307 308 308 308 308 308 308 307 307 307 307 307 307 307 307 307 307 308 307 308 308 308 308 308 309 310 312 314 316 317 319 320 320 321 320 320 319 319 319 318 318 318 319 319 319 318 317 315 314 313 313
310 311 312 313 314 312 311 312 313 312 309 308 308 306 306 310 310 310 311 309 313 314 310 313 315 309 308 311 311 313 312 309 307 306 306 307 307 308 308 307 307 307 307 307 307 307 307 307 307 307 307 307 307 307 307 307 307 307 307 307 308 308 310 313 314 317 318 320 321 321 321 320 320 320 319 318 319 319 319 319 319 318 317 315 314 313
312 309 310 312 312 310 310 309 308 307 308 309 309 308 309 310 310 310 310 310 312 310 309 314 313 308 310 312 311 313 312 309 307 305 305 306 307 307 308 307 307 307 307 307 306 306 306 306 306 306 306 306 306 306 306 306 306 306 306 306 306 307 308 309 312 314 316 318 319 320 321 321 321 320 320 320 319 319 319 318 318 319 318 316 314 313
309 309 308 307 309 310 308 307 306 306 308 308 309 310 310 311 309 308 310 312 311 308 308 314 315 312 313 314 312 311 308 307 306 306 306 306 306 307 307 306 307 307 306 306 306 306 306 306 306 306 306 306 306 306 306 306 306 306 306 306 306 306 306 307 308 310 312 315 316 317 319 320 321 321 320 320 319 319 319 317 316 318 318 316 314 312
307 311 310 306 307 308 308 308 307 306 307 307 308 309 309 310 309 308 311 312 310 308 308 309 310 311 312 314 313 308 304 304 306 306 306 306 307 307 307 306 307 307 306 307 306 307 306 306 306 306 306 306 306 306 306 306 306 306 306 306 305 305 305 305 306 307 308 310 312 314 316 318 319 320 320 321 320 320 320 318 317 317 318 317 314 312
304 310 310 306 305 306 307 310 308 307 308 307 307 308 307 307 307 305 306 309 308 307 308 306 306 309 307 305 306 306 305 306 306 306 306 306 307 307 306 306 307 306 307 307 306 307 306 306 306 306 306 306 306 306 306 306 306 305 306 306 305 305 305 304 305 305 306 307 308 311 313 315 317 318 319 320 321 320 320 319 317 316 316 315 313 312
304 307 307 305 304 305 306 308 308 307 307 304 305 307 306 306 309 307 306 307 308 307 307 305 305 308 306 301 302 305 305 305 305 305 306 306 306 307 306 306 306 306 306 305 305 305 305 304 305 304 304 305 304 304 305 304 305 305 304 304 304 304 304 304 304 304 304 305 307 308 310 311 314 316 318 319 320 320 319 318 316 315 315 313 312 312
306 305 305 306 304 303 305 307 307 306 306 305 306 308 307 306 308 308 307 307 307 306 306 306 306 307 307 304 306 308 305 304 304 305 305 306 306 306 306 305 304 303 303 302 302 302 302 302 302 302 302 302 302 302 302 302 302 303 303 302 302 301 302 302 303 303 303 304 305 306 308 310 312 314 317 318 319 320 319 317 315 315 314 312 311 311
306 303 304 305 303 302 305 305 305 304 303 305 307 307 307 306 306 307 306 307 307 306 307 308 307 307 306 306 309 310 307 305 304 303 303 304 306 307 305 303 302 302 301 301 301 300 300 300 300 301 301 301 301 301 301 301 301 301 301 301 301 301 301 301 302 302 303 303 303 304 306 308 310 313 316 318 319 319 319 317 315 314 313 312 310 310
304 303 303 304 303 303 303 303 304 304 303 303 306 304 303 305 305 305 306 306 306 305 306 308 308 306 305 305 306 306 304 304 303 303 303 303 305 307 305 302 301 301 300 301 300 300 300 300 300 300 300 301 301 301 301 301 301 301 301 301 301 301 301 301 301 302 302 302 302 303 303 306 309 312 315 317 319 318 318 317 315 314 313 311 310 309
303 303 302 303 303 302 303 303 304 304 302 303 306 305 304 305 304 303 305 306 304 304 306 308 307 304 302 303 304 304 303 304 304 303 302 302 304 306 305 303 301 301 301 301 300 300 300 300 300 300 300 300 300 300 300 301 300 300 300 300 300 300 301 301 301 301 302 302 302 302 302 304 307 311 314 316 317 317 317 316 315 314 312 310 310 309
303 304 303 302 302 302 303 305 305 302 302 304 306 304 303 304 303 302 304 305 303 302 304 307 308 305 303 304 305 304 304 304 303 303 301 301 303 306 305 303 302 301 301 301 301 301 301 300 300 300 300 300 300 300 300 300 300 300 299 299 299 300 300 300 301 301 301 302 303 302 302 303 306 310 314 316 317 317 317 315 314 313 311 310 309 307
301 303 303 303 303 302 302 303 304 303 304 306 305 303 301 302 301 300 302 305 304 301 301 305 307 305 302 303 303 303 303 304 304 304 302 300 302 303 303 303 302 302 302 301 301 301 301 301 301 301 301 301 300 300 300 299 299 299 299 299 299 299 299 300 300 300 300 302 303 303 303 304 306 310 314 315 316 317 316 314 312 311 310 309 308 306
302 302 303 303 303 303 302 303 304 304 305 305 304 303 301 300 299 299 301 305 303 299 299 302 303 301 300 301 302 302 303 304 305 304 301 300 302 301 302 302 301 301 301 301 301 301 301 301 301 301 302 301 300 300 299 299 299 299 299 299 299 299 299 299 299 300 300 302 303 303 304 305 306 310 313 315 316 316 316 313 310 310 310 309 307 306
306 305 303 302 303 304 303 303 304 303 303 304 304 303 301 300 299 301 304 306 302 299 299 300 300 300 300 300 300 303 305 305 304 302 301 301 302 301 301 301 300 300 301 300 301 301 302 302 302 301 301 300 299 300 299 299 299 299 299 299 299 299 299 299 300 300 301 303 304 304 305 305 307 310 312 315 315 315 315 312 310 310 309 307 305 304
304 304 301 301 304 304 303 303 303 303 303 303 303 302 300 300 302 304 305 303 300 298 300 300 300 301 301 300 300 303 304 303 302 302 302 302 302 301 301 301 300 300 300 300 301 302 302 302 302 301 301 300 300 300 300 300 300 300 300 300 300 300 300 300 301 301 302 304 305 306 306 307 308 310 312 314 314 314 313 312 311 310 307 304 304 304
302 301 300 301 302 302 303 303 302 302 302 301 301 300 298 300 303 304 302 299 298 299 300 300 301 301 301 301 301 301 301 301 301 302 301 301 301 301 300 300 300 300 300 300 301 301 302 302 302 301 301 301 301 301 301 301 301 301 301 301 300 301 301 302 302 303 304 305 305 306 307 308 309 311 312 313 312 312 311 310 309 307 305 304 304 304
300 299 300 301 300 299 300 301 301 302 301 299 299 300 299 299 301 300 298 297 298 299 300 300 300 299 299 299 299 299 299 300 300 300 299 299 299 299 299 299 300 300 300 300 300 301 302 302 302 302 302 302 302 302 301 301 301 301 301 301 302 302 302 303 303 304 305 305 306 307 308 308 309 311 312 312 310 310 309 307 306 305 304 304 302 300
299 299 299 300 300 298 300 302 302 301 300 298 299 300 299 298 298 298 298 298 298 299 299 299 299 298 298 299 298 298 299 299 299 298 298 298 298 298 298 298 299 300 300 300 300 301 302 303 302 302 302 302 302 302 301 301 301 301 302 302 303 303 303 304 304 304 305 306 306 308 308 309 310 311 311 310 309 308 307 305 303 301 300 299 297 296
298 298 298 299 299 298 299 301 300 298 297 297 298 298 298 297 297 297 297 297 298 299 299 298 298 298 298 298 298 298 298 298 298 298 297 298 298 298 298 298 299 299 299 299 300 301 302 302 302 302 302 302 302 302 302 302 302 302 303 303 303 304 304 304 304 305 305 306 306 308 309 310 310 310 309 308 307 306 304 303 300 298 297 296 296 295
297 296 296 297 298 298 297 297 296 296 297 297 297 297 297 297 297 297 297 297 298 299 299 298 299 299 298 298 298 298 298 298 298 298 298 298 298 298 299 299 299 299 299 299 299 300 301 302 302 302 302 302 301 302 302 302 302 303 303 303 304 304 304 304 304 305 305 306 307 308 309 309 309 309 308 306 304 302 300 299 298 297 297 297 296 295
297 295 295 297 298 298 298 298 296 296 297 297 297 297 297 297 297 297 297 298 299 299 298 298 298 298 298 298 298 298 298 298 298 298 298 299 299 299 299 299 299 299 299 299 299 301 302 302 301 302 301 301 301 302 302 302 303 303 304 304 304 304 304 304 304 304 305 306 307 308 309 309 308 307 305 302 300 298 298 298 298 298 297 296 295 295
296 295 296 298 297 297 297 297 295 296 297 297 297 297 297 297 297 297 297 298 298 298 298 298 298 298 298 298 298 298 298 298 298 298 299 299 300 300 299 300 300 300 300 300 301 301 302 301 301 301 301 301 302 302 302 303 303 304 304 304 304 304 304 304 304 304 305 307 307 307 307 307 305 304 302 299 298 298 299 298 298 298 297 296 295 294
296 296 296 297 297 296 296 295 295 296 296 296 296 296 296 296 297 296 296 297 297 297 297 298 298 298 298 298 298 298 299 299 299 299 299 299 299 299 300 300 300 300 301 301 301 301 301 301 301 301 301 302 302 302 303 303 303 303 304 304 303 303 304 304 304 305 306 306 306 306 305 304 302 301 300 299 298 298 298 298 298 297 296 295 295 295
296 296 296 296 296 296 296 296 295 295 295 295 296 296 296 296 296 296 296 296 296 297 297 297 298 298 298 298 298 298 299 299 299 299 299 299 299 300 300 300 301 301 301 301 301 301 301 301 301 301 302 302 302 302 303 303 303 303 303 303 303 303 304 304 305 305 305 305 304 303 303 301 300 299 299 298 298 298 298 298 297 296 295 295 295 295
296 296 296 296 296 296 295 295 295 295 294 295 295 296 295 296 295 296 296 296 296 297 297 297 298 298 298 298 298 298 299 299 299 299 299 299 300 300 301 301 301 301 301 301 301 301 301 301 301 302 302 302 302 303 303 303 303 303 302 302 302 303 303 304 305 305 304 303 301 300 300 299 299 298 298 298 298 298 297 296 296 295 295 295 296 296
Wind_Speed
4 3 0 3 5 6 6 5 5 4 4 5 5 5 4 2 3 5 4 5 2 2 1 2 5 7 6 7 5 4 6 11 14 12 13 16 18 22 26 30 33 35 36 35 36 38 36 34 33 32 31 29 27 24 21 18 14 13 11 9 7 7 8 8 8 8 7 5 4 5 5 5 4 3 2 2 2 0 1 3 5 6 7 8 9 9
4 2 4 7 9 7 5 5 4 4 4 4 5 4 1 2 3 5 3 4 4 1 3 1 1 7 7 7 5 5 5 7 14 16 16 18 19 21 25 29 32 33 33 33 36 38 37 37 36 34 33 32 30 27 23 19 16 14 13 10 8 7 7 7 8 7 6 5 5 6 7 7 6 6 4 3 3 2 2 2 4 5 6 8 8 9
4 3 8 8 6 4 3 5 6 5 5 4 3 3 1 2 3 5 3 5 4 1 4 3 4 6 7 7 6 4 5 7 15 18 18 22 24 25 27 29 31 33 33 33 35 38 39 39 38 37 36 34 32 28 24 21 19 17 15 13 10 8 7 8 9 8 8 9 8 8 8 8 7 6 5 4 4 4 3 3 3 3 5 6 8 9
2 5 6 3 6 6 3 3 6 4 2 3 3 2 2 3 1 3 4 6 4 2 1 2 3 6 6 6 6 4 2 3 8 11 13 19 24 28 31 32 33 35 36 35 36 38 40 41 40 40 38 36 33 30 27 24 22 20 17 14 12 9 8 9 10 11 11 11 11 10 8 8 6 5 5 5 5 6 5 5 4 4 4 4 5 7
5 7 5 5 5 5 2 2 5 4 1 2 2 4 2 2 3 4 4 5 4 3 3 4 5 5 4 5 5 4 5 2 2 2 6 12 19 24 27 30 34 37 39 39 38 38 40 43 43 42 40 37 35 33 30 27 24 22 18 15 12 10 9 10 12 14 14 12 12 11 10 8 7 6 5 5 5 6 6 6 6 6 6 6 4 3
6 6 3 4 3 2 4 2 3 6 2 4 3 7 6 5 4 2 3 5 5 4 4 4 2 5 5 5 6 4 7 6 4 3 5 8 12 18 23 28 34 36 39 40 39 40 42 44 44 43 41 38 37 35 32 29 26 23 19 15 13 11 10 11 13 15 15 13 12 11 10 9 8 8 6 5 5 5 6 6 7 7 8 7 7 6
4 2 3 4 4 4 3 3 5 6 5 2 4 6 6 6 4 2 1 3 2 3 4 2 2 4 5 5 6 4 6 8 8 7 8 8 9 15 21 26 31 35 37 39 39 40 42 45 46 44 41 39 39 37 34 31 27 24 20 17 15 13 12 12 13 15 16 14 12 10 9 8 9 10 7 5 4 4 4 5 6 6 7 8 8 8
3 2 5 5 5 5 2 3 5 7 7 2 5 6 8 6 4 4 4 3 2 3 4 4 3 2 4 5 5 5 6 8 8 8 10 11 9 9 14 19 26 33 37 40 41 42 42 45 47 44 40 39 40 38 36 33 29 26 23 19 17 15 13 13 13 15 16 14 13 11 10 8 9 9 7 5 4 3 3 3 4 5 6 7 8 9
2 2 2 2 5 2 3 4 6 9 5 5 5 8 6 5 5 5 5 3 0 1 3 5 2 1 4 6 5 5 4 6 8 8 9 12 15 14 13 16 20 27 33 38 42 43 43 45 46 44 40 39 40 39 38 35 31 28 24 21 19 17 15 15 15 15 15 15 14 13 12 10 8 8 8 6 5 3 2 2 3 3 4 5 6 8
3 4 4 3 4 3 6 4 7 9 3 4 6 7 5 5 5 4 5 3 3 2 4 6 1 1 4 6 5 3 2 5 7 7 7 10 18 19 16 16 16 21 28 35 39 42 43 44 45 43 41 41 41 40 39 36 32 29 26 23 22 20 17 16 17 16 16 15 15 15 13 11 10 9 9 8 6 5 3 2 2 2 2 3 4 6
4 3 2 3 4 5 4 2 4 5 3 3 5 6 6 6 5 4 3 4 4 1 6 7 2 2 2 5 4 2 1 3 5 6 7 10 16 15 11 10 10 16 24 31 36 40 42 43 43 43 43 43 43 42 40 37 34 31 28 27 25 22 20 19 18 18 17 17 17 16 15 13 11 10 9 7 6 5 4 3 3 2 2 2 2 4
6 3 3 3 4 3 6 4 1 3 4 4 4 5 4 3 4 4 4 3 3 3 6 5 1 4 2 4 3 4 5 4 4 5 7 9 14 13 7 5 4 9 18 25 32 37 38 40 42 43 44 44 44 43 41 39 36 33 31 30 28 25 24 22 20 20 19 18 18 18 17 15 13 11 9 7 6 5 4 4 4 4 4 3 2 2
5 4 4 4 4 3 5 3 3 4 5 5 4 4 3 2 3 3 3 1 2 5 3 2 1 2 4 5 4 6 7 6 4 4 5 7 12 12 11 7 5 2 11 20 27 33 36 38 41 43 45 45 44 43 42 40 37 36 35 33 31 29 27 24 23 22 21 20 19 19 18 17 15 14 11 8 6 6 6 5 5 5 4 4 3 2
4 6 5 3 3 2 5 4 1 1 1 4 4 4 3 2 2 1 3 1 3 4 2 2 1 1 3 3 4 6 8 7 5 4 4 5 8 13 17 11 7 4 6 15 24 30 34 36 38 41 44 44 44 43 42 40 38 38 37 36 34 32 29 27 25 24 23 21 20 20 19 19 18 17 14 11 8 7 7 7 6 5 5 4 4 4
0 5 4 2 2 1 3 5 5 5 3 3 4 5 4 4 4 3 3 2 3 2 2 2 1 2 2 2 5 6 6 6 7 4 4 6 8 20 27 20 13 8 2 7 17 25 30 32 34 38 40 41 42 41 40 39 39 39 39 38 37 35 32 30 28 26 24 22 21 21 21 21 20 19 17 14 10 9 9 8 7 7 6 6 6 5
1 5 6 4 3 1 1 2 5 6 2 1 3 5 2 4 4 2 2 4 3 1 1 1 2 3 2 3 6 5 6 5 5 5 9 11 13 26 32 28 25 18 11 3 7 16 22 27 30 34 35 35 36 36 37 38 38 39 41 40 39 37 35 33 30 28 26 23 22 23 23 22 22 21 20 17 14 12 11 9 9 8 8 7 7 8
1 4 6 4 3 1 1 1 3 3 2 1 2 3 4 4 7 4 1 1 3 1 3 1 2 2 1 1 4 5 5 4 4 7 11 13 18 25 27 27 29 27 22 16 7 2 11 18 24 29 31 31 31 32 34 35 36 39 41 41 40 38 36 35 33 30 27 25 24 24 24 24 23 23 22 20 16 14 13 11 10 10 10 10 10 10
2 4 6 2 0 4 5 3 4 3 4 4 2 5 3 3 5 4 1 3 4 2 4 1 2 2 1 1 3 4 2 3 6 5 8 13 18 21 21 23 26 27 27 25 20 15 7 2 9 16 22 26 28 30 31 32 33 36 38 39 40 39 38 37 35 33 30 28 26 25 25 25 25 24 22 21 19 16 15 13 12 13 12 12 12 12
2 2 7 2 2 5 7 4 3 5 3 4 4 3 3 2 1 1 2 1 1 2 3 3 2 2 3 4 3 3 3 1 5 6 5 9 13 16 18 21 24 26 27 26 26 23 19 14 9 3 4 11 17 22 26 27 29 31 33 35 38 40 40 38 38 36 33 31 28 27 27 27 25 24 23 21 20 19 17 15 15 14 14 14 14 14
2 1 5 4 2 4 5 3 1 4 3 3 2 3 2 2 3 2 2 3 3 2 2 3 3 2 5 5 3 5 5 3 4 5 5 7 11 14 15 19 23 26 26 26 25 23 21 20 18 15 11 6 0 6 13 17 22 25 26 29 34 37 39 40 40 39 37 34 30 27 29 30 29 27 25 23 22 21 19 17 17 16 16 16 16 15
2 2 3 5 4 2 1 1 3 3 1 1 2 2 1 2 2 1 1 1 3 3 3 1 2 4 5 3 3 5 6 5 3 3 5 7 10 13 15 17 21 23 24 24 23 22 21 20 19 18 16 13 10 6 1 5 10 15 19 23 27 32 36 39 40 40 39 37 32 28 27 30 32 30 28 27 25 24 22 19 18 18 18 17 17 17
1 2 3 3 5 1 4 4 3 4 3 3 2 2 3 3 2 2 1 2 1 3 4 4 2 6 4 3 4 5 5 4 2 3 4 6 9 11 14 16 19 21 22 21 21 20 19 19 19 18 17 15 14 11 7 4 3 6 11 15 19 25 30 34 37 39 40 39 37 33 28 29 33 33 32 31 29 27 25 22 21 20 20 20 20 19
1 3 1 3 4 4 7 4 1 2 3 4 2 1 3 3 4 4 3 3 0 1 2 4 2 5 5 4 4 3 2 1 3 3 3 6 8 11 13 15 17 19 20 20 20 19 18 17 17 17 16 15 15 15 13 10 8 5 6 9 13 18 21 26 30 34 37 39 40 38 31 28 31 34 36 35 32 31 28 25 23 22 22 22 21 21
1 2 1 3 4 4 6 4 3 3 4 4 1 1 3 2 3 4 4 3 2 3 2 2 1 5 5 3 2 3 2 3 5 6 6 8 9 11 13 15 16 17 17 17 18 17 17 16 15 16 15 14 14 13 13 13 12 11 9 7 8 11 15 19 24 28 32 36 38 38 35 31 31 34 38 39 36 33 31 29 26 25 25 24 23 23
1 0 2 2 4 5 6 5 5 5 3 2 2 2 2 3 5 3 1 3 1 3 4 4 4 5 4 3 4 4 3 5 8 8 9 9 10 11 13 14 14 13 13 13 13 14 15 15 15 15 15 14 13 12 11 11 11 12 13 12 11 9 10 13 18 22 27 31 34 36 38 37 36 35 37 40 40 37 34 32 29 27 27 26 25 25
1 1 3 2 2 3 2 3 3 2 1 0 2 3 0 4 5 2 1 3 1 3 3 4 4 3 4 5 5 4 3 5 7 9 10 9 10 11 11 11 11 11 11 11 11 12 13 14 14 14 13 13 12 11 10 9 9 10 10 11 12 12 11 10 12 17 22 26 30 33 37 40 41 39 38 40 42 41 37 34 32 29 29 28 27 26
2 1 2 5 5 6 5 6 5 2 2 1 1 3 3 1 3 3 4 3 4 3 2 5 4 1 5 6 5 5 2 2 4 7 9 8 8 9 9 8 8 9 9 10 10 11 12 12 12 12 12 11 10 9 9 9 9 9 9 9 10 11 12 11 11 13 16 21 26 29 33 37 40 41 41 42 44 43 39 36 34 32 31 30 28 26
4 2 2 4 5 6 6 6 4 1 3 5 4 5 6 2 3 5 4 4 4 4 4 7 5 4 6 7 6 6 4 4 3 3 5 6 6 6 6 6 6 7 8 9 10 11 11 11 11 11 11 10 9 8 8 8 8 8 8 9 9 9 10 12 13 13 14 17 21 26 29 33 36 38 41 44 45 45 42 36 35 36 34 32 30 28
4 2 3 3 4 6 5 6 4 1 4 4 5 7 8 5 6 7 7 6 6 6 7 6 7 7 7 6 7 7 6 5 4 1 2 2 5 6 5 4 5 7 8 9 11 11 12 11 11 12 12 12 12 11 11 11 11 11 10 10 10 10 11 12 13 14 15 16 18 21 23 28 32 35 38 41 43 45 44 40 38 38 37 34 31 28
3 2 3 3 3 6 5 6 4 4 4 4 5 8 7 6 8 8 7 6 7 8 8 5 8 9 7 7 8 6 6 6 4 2 1 3 5 5 4 3 5 7 8 10 11 12 13 13 13 14 14 14 15 15 15 15 15 15 15 14 14 13 13 14 15 16 17 18 19 19 20 23 27 31 34 37 39 41 43 45 44 41 39 36 31 29
1 2 2 1 2 6 5 5 5 5 5 5 7 7 5 5 6 5 4 4 4 6 7 5 6 8 7 7 7 5 5 5 6 5 3 4 5 4 3 3 4 6 7 9 11 12 13 14 15 16 16 17 17 18 18 19 19 19 19 19 18 17 17 17 17 17 18 19 20 20 21 22 24 27 31 33 36 37 41 46 46 40 37 34 31 29
1 1 1 1 3 5 3 5 8 5 4 7 8 6 5 6 6 5 5 5 6 6 6 4 5 7 7 7 6 5 4 6 8 7 4 4 5 5 3 2 4 6 8 10 11 13 14 15 16 17 18 19 19 20 20 21 21 22 22 22 22 22 21 21 21 21 21 21 21 21 22 23 24 25 28 31 34 36 39 43 42 37 34 32 31 30
2 2 0 2 2 3 3 6 6 3 5 8 7 8 11 10 8 6 5 5 7 6 5 5 6 6 5 7 7 6 6 6 6 5 2 2 5 5 2 3 5 7 9 11 13 14 15 16 17 19 20 20 21 22 22 23 23 23 23 24 24 24 24 24 24 23 23 23 23 24 24 24 25 25 26 30 34 35 37 39 39 37 34 32 31 30
1 2 2 3 2 3 2 2 1 1 5 8 5 7 10 11 11 11 8 8 8 6 4 4 5 3 5 8 9 8 6 3 1 3 3 4 5 5 2 3 7 9 11 13 14 15 16 17 18 19 20 21 22 23 23 24 25 25 26 26 26 26 25 25 25 25 25 24 24 24 25 26 27 26 26 29 32 33 34 36 37 36 34 33 31 30
1 2 2 1 2 2 1 4 1 5 7 4 4 3 2 3 7 10 9 7 5 4 2 2 2 2 5 6 6 6 4 1 4 5 6 7 9 8 5 5 10 13 15 15 16 17 17 19 20 21 22 22 23 23 24 25 25 27 28 28 29 28 27 26 26 26 26 26 24 24 26 27 28 27 26 27 30 31 32 34 36 36 35 34 32 30
3 3 2 1 1 2 1 3 4 6 6 5 5 4 3 2 2 2 5 6 3 1 2 0 1 1 1 2 4 4 2 4 7 8 7 8 11 12 9 9 14 16 17 18 18 19 20 21 22 23 24 24 24 24 25 25 27 29 30 30 31 30 29 28 28 27 26 26 25 24 25 26 28 28 26 26 28 30 31 34 38 39 37 34 31 29
5 3 2 1 1 2 2 3 3 4 7 6 3 3 2 1 1 2 3 4 4 1 2 4 2 1 1 2 4 3 3 4 7 8 6 6 10 12 13 14 17 19 19 20 20 21 22 23 23 24 24 25 26 27 27 28 29 31 33 33 32 32 31 30 30 28 27 26 25 24 24 26 28 27 26 27 28 29 31 36 41 41 38 34 31 27
4 3 3 3 1 1 1 3 3 3 5 5 4 4 3 3 4 2 1 2 4 3 2 3 2 1 3 5 5 4 1 3 4 6 7 7 9 11 14 17 18 20 21 22 22 23 23 23 23 23 23 25 26 27 28 30 32 34 35 35 34 33 34 33 32 30 28 27 26 25 24 26 27 25 25 27 28 29 33 39 41 38 35 32 28 24
3 1 3 3 1 1 2 2 2 3 4 5 5 6 8 5 3 3 2 1 2 4 6 3 2 5 7 7 5 4 2 1 3 8 12 13 12 12 14 17 19 21 23 23 24 25 25 24 23 23 23 25 26 27 28 31 33 35 37 36 35 34 35 34 32 30 28 27 26 25 24 25 25 23 23 26 29 31 35 39 37 33 31 28 24 21
4 4 3 1 2 2 2 3 3 3 3 3 5 7 10 6 2 4 0 4 4 6 8 5 5 8 10 9 5 5 4 5 7 12 17 18 17 17 18 20 22 23 24 24 24 25 25 25 24 25 25 26 28 29 30 32 34 35 36 36 35 35 34 33 31 29 28 26 25 24 23 22 22 21 21 25 29 32 36 40 38 34 31 25 21 18
2 2 1 1 2 2 3 2 3 3 3 3 4 7 8 5 1 2 2 4 6 8 8 6 8 11 11 9 7 7 9 13 15 18 21 21 22 23 23 24 26 26 26 26 25 25 25 26 26 26 27 28 29 32 33 34 34 35 35 35 35 35 33 31 30 28 25 24 23 22 21 19 19 19 20 24 29 32 38 41 38 34 28 21 17 15
1 1 2 0 1 1 2 2 2 3 2 1 2 6 7 2 2 3 5 8 10 10 8 7 8 9 10 11 10 12 17 20 21 22 23 24 27 28 28 29 29 29 29 28 26 25 26 28 28 28 29 30 31 34 34 33 33 34 34 35 36 34 31 29 27 25 23 22 21 20 18 17 17 19 21 26 30 35 40 39 33 26 21 17 16 15
1 1 3 2 2 1 1 1 1 3 3 1 1 3 4 2 3 9 13 15 15 13 10 9 9 9 10 12 14 17 20 21 23 24 26 28 29 30 31 31 31 31 31 29 28 27 27 29 30 31 32 32 33 34 33 31 32 33 33 34 34 31 28 27 24 21 20 19 18 18 17 16 17 20 22 26 31 33 32 28 23 20 17 16 16 15
2 2 1 2 1 0 1 2 2 4 2 1 2 1 1 5 13 17 16 16 18 15 11 11 14 14 14 16 18 20 21 23 25 27 29 30 31 32 33 33 32 33 32 31 31 29 28 30 32 33 33 34 35 34 31 29 30 32 32 33 31 28 26 24 21 20 19 18 17 16 14 14 18 21 23 28 31 28 23 20 19 17 16 15 14 12
2 2 3 3 2 2 4 5 7 11 12 8 5 6 10 17 21 20 18 19 19 15 12 14 17 16 16 18 21 22 24 26 28 29 31 32 33 33 34 34 33 34 34 33 33 31 31 32 33 34 36 36 35 32 29 28 29 32 33 31 28 25 23 21 20 19 17 16 15 14 13 15 19 22 27 30 29 25 23 20 17 16 15 13 12 9
4 2 1 3 2 3 5 7 10 14 17 14 10 13 20 24 21 18 18 18 15 13 14 17 18 18 20 23 25 27 29 30 31 32 32 33 33 33 33 34 34 34 33 34 34 33 32 32 34 36 38 38 36 32 29 28 29 32 33 29 25 22 22 22 21 19 16 15 14 13 15 18 22 27 29 28 26 24 23 20 17 16 14 12 10 7
5 3 1 2 2 4 4 4 5 10 16 19 21 25 26 22 17 17 20 18 13 14 18 19 20 23 26 27 29 31 32 32 33 34 33 32 33 33 32 33 34 33 32 32 32 32 32 33 35 37 38 40 37 32 30 30 30 31 29 26 23 22 22 23 23 18 14 14 15 18 20 24 30 34 33 30 28 25 22 19 16 13 10 9 8 7
2 2 1 3 3 3 4 8 15 21 25 25 25 24 21 17 16 20 23 19 16 18 21 22 24 27 28 29 29 31 32 33 32 32 32 32 33 33 32 32 32 32 31 30 30 31 32 33 35 37 38 38 36 32 31 30 28 27 27 26 26 25 24 23 20 16 14 16 19 23 28 33 37 37 34 31 29 24 19 15 13 10 8 9 9 8
4 3 2 2 3 4 6 11 16 18 17 19 21 21 19 18 21 23 23 20 20 23 25 26 26 27 27 27 28 28 30 32 31 30 32 33 34 34 33 32 31 30 30 29 30 31 32 34 35 36 36 35 33 31 28 25 24 26 27 26 25 22 19 17 15 15 18 21 25 31 36 38 36 33 30 28 25 20 15 13 12 11 12 12 10 8
2 3 3 1 3 4 5 10 13 9 7 15 25 27 23 21 22 25 25 25 26 27 28 27 27 26 26 27 28 28 30 32 33 33 34 35 34 33 32 30 30 30 30 30 31 32 33 34 34 35 34 33 30 26 22 21 23 24 23 20 17 15 13 13 15 19 25 31 35 37 38 36 33 30 28 26 23 20 16 15 15 14 13 13 11 9
6 7 6 3 4 7 11 19 22 15 11 19 28 29 26 24 27 29 30 29 28 26 24 23 25 27 29 31 31 30 31 33 34 33 34 34 33 31 30 29 29 30 31 31 31 33 34 34 34 33 31 27 23 20 19 20 21 20 17 14 9 9 12 16 22 28 34 39 39 37 35 34 31 29 25 22 21 20 19 19 19 16 14 12 10 8
Wind_Direction
53 49 25 219 232 240 232 196 184 185 138 127 121 120 157 174 282 277 270 288 315 101 251 224 236 275 277 259 253 197 206 221 222 214 201 202 204 205 205 208 210 211 213 209 206 207 207 207 209 211 212 213 213 213 214 214 213 214 211 199 192 198 204 203 208 213 207 200 194 175 153 148 152 147 132 105 94 29 304 286 282 278 275 275 277 277
52 47 245 225 222 224 214 183 148 119 94 99 129 127 175 195 250 265 255 304 337 95 259 312 320 280 269 264 250 174 178 224 224 219 211 210 209 211 212 212 213 215 215 212 209 208 208 209 210 212 214 214 215 214 213 213 212 215 211 203 201 202 202 197 200 202 183 162 160 152 139 134 129 120 114 101 87 64 15 332 312 307 301 295 291 288
18 285 257 240 206 149 112 131 122 110 94 81 132 134 301 255 272 289 299 327 355 78 269 344 17 288 276 283 278 210 183 208 217 217 218 217 211 211 215 214 214 216 216 214 213 211 210 210 211 212 214 215 216 215 214 212 211 215 210 201 202 203 197 188 188 187 165 151 147 144 140 132 123 113 109 106 95 82 66 38 7 339 319 307 298 295
334 252 241 200 146 131 84 97 113 106 91 89 124 142 265 276 321 294 302 325 346 59 239 46 22 300 300 317 298 278 262 191 201 216 223 222 218 217 218 217 216 216 216 215 214 213 210 209 210 213 214 214 215 215 214 212 211 214 210 201 201 201 194 186 179 174 166 157 150 150 146 133 126 122 110 105 98 88 82 76 61 42 16 343 310 291
253 242 200 127 124 153 136 89 119 131 265 302 167 162 196 244 212 223 281 329 344 9 41 61 18 315 326 337 300 310 342 350 142 205 224 225 227 225 221 219 219 220 219 218 215 213 210 210 211 213 214 215 216 217 216 215 214 213 209 203 202 200 195 188 177 175 175 169 162 160 155 149 150 150 130 109 100 91 85 82 77 66 54 41 25 358
259 259 183 128 87 122 146 203 181 155 183 312 245 201 186 182 199 233 343 21 28 351 342 36 4 291 320 320 272 310 346 325 339 336 244 225 222 223 222 221 222 223 222 222 219 215 213 211 211 212 213 216 219 220 218 216 216 213 208 205 203 203 199 191 183 181 183 181 177 167 153 149 153 154 145 128 116 100 86 79 78 73 66 59 52 50
253 311 69 114 110 97 120 247 233 162 131 311 246 198 161 133 123 133 80 70 82 269 302 47 152 254 320 316 277 326 343 313 318 313 277 256 220 217 227 228 226 226 225 225 223 219 215 212 211 212 214 219 222 222 218 216 215 212 209 207 207 208 206 198 190 189 191 191 186 172 150 139 145 152 149 145 144 116 92 82 78 76 71 69 68 67
229 316 30 70 92 90 109 253 231 151 120 237 227 144 128 127 144 165 146 146 208 249 320 14 108 192 301 279 288 347 346 323 317 303 296 292 270 238 241 242 234 231 229 228 225 221 217 214 214 215 217 222 224 222 219 216 214 214 211 209 210 211 210 205 198 196 199 199 190 180 169 156 152 157 155 159 167 145 117 96 82 82 76 72 75 79
226 253 299 86 79 85 204 215 193 153 139 242 193 124 129 139 146 144 124 136 342 24 310 323 37 156 276 274 310 0 353 316 304 293 293 305 316 316 295 275 254 240 234 232 229 224 220 218 218 218 221 224 224 223 221 217 215 214 211 209 210 212 214 212 206 201 203 204 196 187 187 180 168 170 177 185 189 178 162 129 96 90 85 81 82 86
248 239 241 140 108 228 228 210 176 159 179 224 138 96 72 72 76 86 101 110 48 55 245 273 289 181 270 283 307 354 355 285 285 289 288 312 328 324 302 283 262 243 235 232 232 228 225 224 222 220 221 223 224 224 222 218 215 214 211 212 212 214 218 217 212 206 204 208 204 197 199 197 187 187 190 193 197 196 192 182 155 115 111 107 98 97
286 291 247 166 189 207 174 144 169 149 133 130 94 62 51 42 39 48 61 87 68 349 253 255 227 136 265 279 276 238 216 265 281 301 308 324 330 320 303 288 258 234 229 227 229 229 226 225 222 218 219 223 223 224 222 218 216 215 215 216 216 216 221 220 216 212 207 210 209 203 204 207 205 205 201 195 196 198 195 194 197 192 186 175 134 122
330 331 253 255 239 172 102 72 43 71 87 100 74 65 67 357 15 33 355 49 87 261 265 265 156 113 207 266 296 278 276 279 264 277 297 315 323 328 350 354 300 233 225 223 225 225 222 220 219 217 219 223 224 224 223 220 217 217 218 219 218 218 220 221 219 216 211 212 214 208 207 212 216 218 215 203 196 196 195 201 212 219 222 222 205 169
323 260 268 307 279 167 111 70 11 15 41 80 84 78 76 336 15 17 302 4 185 242 268 293 120 131 231 244 283 295 297 299 279 271 290 304 321 353 35 34 13 291 232 223 219 220 219 219 219 218 220 223 225 227 226 223 220 220 220 219 220 220 222 222 220 219 216 216 219 214 209 214 221 226 227 218 205 202 203 210 221 229 238 239 233 215
322 301 319 334 287 198 140 141 192 301 70 128 145 125 121 110 67 300 267 278 259 262 300 305 280 288 270 264 284 288 292 314 346 338 329 333 343 33 54 50 37 23 253 231 221 218 219 220 220 220 221 224 227 229 229 227 223 221 221 220 221 222 223 223 222 221 220 219 222 220 213 215 223 229 231 228 220 217 215 215 224 236 245 248 242 228
265 307 293 201 269 290 173 177 169 152 137 171 161 133 146 158 151 223 223 196 239 266 319 309 255 190 202 279 295 292 304 352 28 17 27 26 31 60 65 60 55 50 359 242 229 223 220 221 221 222 224 225 228 229 230 229 226 224 223 222 223 223 223 223 223 223 222 221 223 223 218 217 222 229 234 235 229 228 228 223 224 230 238 245 244 237
157 261 260 263 285 272 201 195 139 115 104 237 135 111 159 185 152 169 188 170 177 174 256 257 235 217 201 292 300 313 323 355 46 58 58 45 48 64 65 62 60 59 57 46 244 233 227 224 224 225 225 227 229 230 231 230 227 225 224 223 224 224 224 225 224 225 226 224 224 226 223 219 221 226 233 235 232 230 231 230 230 231 234 240 242 243
94 270 281 313 321 339 337 203 126 127 184 178 128 162 207 169 123 117 192 58 78 142 252 248 231 281 356 322 313 335 321 324 11 45 56 49 53 61 61 63 64 64 64 63 59 245 235 231 231 232 232 233 235 234 234 232 230 228 225 223 224 224 225 226 227 228 228 226 225 228 227 223 221 223 228 231 231 230 231 230 232 233 233 235 237 241
160 269 294 338 85 332 351 46 55 51 122 126 182 207 186 108 93 109 157 12 46 197 270 295 192 234 115 181 290 310 299 358 359 7 44 51 56 59 58 64 68 68 69 68 66 66 70 199 233 239 241 243 244 243 241 236 233 232 229 227 227 227 227 228 229 230 231 231 228 228 230 228 225 223 225 229 229 229 231 230 229 230 232 235 237 239
131 268 296 299 193 311 347 42 21 360 65 128 182 179 112 122 177 93 139 139 146 217 285 313 269 227 201 213 232 221 208 1 344 341 26 43 47 53 60 68 72 72 73 71 68 67 67 72 80 104 236 253 255 254 251 247 242 238 235 233 232 231 230 230 231 231 233 234 233 234 235 234 232 228 227 230 230 230 230 230 229 230 232 236 241 243
82 132 284 294 265 292 348 35 259 304 355 45 51 25 32 130 163 160 143 159 171 190 244 306 317 267 228 232 181 170 206 253 317 351 17 18 25 40 55 66 72 74 74 73 71 68 66 67 72 80 85 88 342 269 264 260 256 251 246 241 239 237 235 233 233 232 232 234 235 240 243 240 239 236 233 234 234 233 232 231 231 231 233 236 242 246
54 101 246 294 325 291 286 309 200 190 182 24 21 346 346 72 127 162 87 114 135 154 182 191 294 272 248 226 175 176 210 231 268 341 355 6 27 47 58 66 73 76 76 75 73 71 69 67 67 70 75 82 88 84 31 286 276 268 260 253 249 246 242 239 237 235 234 234 235 240 246 245 242 240 239 238 239 238 235 234 233 233 233 236 240 245
43 118 197 288 336 285 237 250 204 176 171 165 178 199 172 136 132 144 294 310 91 135 169 158 214 267 258 210 208 212 214 234 305 335 349 17 46 65 70 75 77 78 80 80 77 74 72 70 68 68 68 71 76 77 73 55 345 296 278 270 263 257 253 249 246 242 239 236 236 238 245 249 246 243 242 240 241 241 238 236 235 234 234 234 237 242
132 105 116 272 272 241 250 262 167 168 153 137 145 149 139 137 125 136 204 251 188 120 150 132 167 268 265 230 230 251 247 281 355 20 54 59 70 76 77 82 83 82 82 81 80 79 77 75 74 73 72 67 65 61 56 52 42 10 310 290 278 271 268 264 259 254 247 242 239 237 242 251 252 249 245 243 242 242 240 238 236 235 235 234 235 238
79 83 37 296 293 303 302 323 35 42 82 93 22 50 111 140 129 146 179 175 162 179 147 119 233 264 270 274 313 332 354 87 75 81 93 87 84 81 81 84 83 81 81 80 80 80 79 80 78 74 71 67 63 55 46 40 33 24 11 346 312 292 283 275 270 265 256 249 243 238 238 246 253 252 248 245 243 242 241 240 237 236 236 235 235 236
346 276 96 18 331 331 336 347 354 347 32 96 300 334 71 102 98 108 120 80 132 213 160 157 231 250 265 317 354 352 26 89 93 97 103 99 92 88 85 84 81 77 74 71 68 66 66 67 65 63 62 60 58 53 46 38 26 18 13 4 351 331 303 283 275 271 265 258 251 243 238 240 246 250 250 247 244 243 242 240 238 238 237 235 235 234
207 209 144 130 230 240 261 273 267 282 306 33 304 297 325 109 111 123 83 91 216 244 165 168 215 259 278 308 339 343 26 90 101 100 103 103 99 94 87 80 73 67 60 53 50 48 47 47 46 45 45 43 40 36 31 25 18 14 10 2 357 347 332 309 286 275 270 266 261 253 245 242 243 246 249 250 246 243 242 241 239 238 238 236 234 233
136 9 193 168 189 203 205 229 225 173 192 227 214 243 250 137 118 109 102 142 197 193 200 214 185 156 271 278 298 311 328 123 129 107 104 110 109 103 91 78 67 58 52 47 42 37 32 31 30 29 28 25 22 17 9 1 356 353 352 350 347 342 337 328 310 289 276 270 267 262 256 252 250 249 249 250 248 244 242 241 240 238 238 237 233 231
99 348 259 175 206 220 212 239 257 105 222 214 177 213 242 231 122 126 164 205 169 139 247 244 186 176 247 252 249 261 262 236 215 132 109 114 120 118 101 79 61 47 40 34 28 23 18 15 12 11 9 5 3 359 351 346 342 337 335 332 328 325 323 320 314 303 288 275 269 267 265 263 260 256 253 251 250 247 243 242 242 238 237 235 231 228
117 273 245 174 257 260 243 256 261 237 256 236 187 207 224 206 175 182 208 203 156 178 242 227 183 202 236 236 229 230 221 217 218 174 101 110 129 131 110 76 48 31 20 14 12 10 6 1 355 351 348 345 342 336 331 329 327 325 324 320 317 312 305 301 300 300 296 286 278 273 271 269 266 263 258 254 252 249 245 243 241 235 232 232 228 224
131 251 227 184 280 292 277 265 243 214 251 270 240 225 216 205 201 204 219 206 181 218 243 198 189 220 229 219 224 216 203 216 228 221 184 139 139 136 107 66 38 23 11 3 1 359 355 351 345 341 337 335 332 329 326 322 318 319 319 316 314 310 303 295 288 286 287 288 289 285 276 270 268 267 264 260 256 253 248 244 240 232 228 227 223 219
115 247 244 176 285 286 278 281 260 218 212 240 254 247 228 229 231 224 231 217 200 244 256 212 210 245 247 225 214 193 194 223 232 221 191 142 142 142 112 64 31 16 3 354 349 345 342 338 334 331 329 328 327 324 322 319 316 314 313 311 309 306 303 298 291 284 278 278 283 285 281 276 270 267 267 265 262 257 250 243 236 228 223 220 216 213
116 245 315 49 282 263 230 250 264 264 252 249 249 241 225 225 225 218 214 194 187 221 245 230 231 252 245 216 199 193 201 218 223 220 194 148 159 159 129 57 20 1 349 342 336 331 328 324 322 321 319 318 317 316 315 313 310 309 308 307 305 303 301 299 295 289 282 277 275 276 277 277 274 270 267 266 263 258 250 242 232 225 221 217 211 210
159 208 235 146 249 266 216 231 254 322 308 266 238 209 212 215 217 228 239 217 199 198 208 223 237 241 210 174 172 197 216 220 224 227 221 190 186 175 138 21 1 346 337 334 329 325 321 318 315 313 310 309 309 309 308 307 307 306 305 303 303 303 302 300 297 293 287 283 278 274 273 273 273 271 269 266 262 257 251 241 229 221 219 215 212 211
165 204 230 179 201 278 284 280 337 309 262 258 240 210 212 216 217 221 230 228 214 196 189 227 244 217 169 167 175 189 196 200 266 281 283 274 242 212 208 352 347 337 332 331 328 325 322 317 314 311 308 307 305 304 303 304 305 305 303 302 301 301 301 301 298 295 291 287 282 278 276 274 273 273 270 266 261 256 250 239 225 216 214 214 212 211
213 208 229 185 188 249 341 55 63 247 249 270 298 279 238 214 209 213 235 252 235 207 225 291 289 184 165 173 176 169 159 63 333 305 282 274 259 234 233 309 329 328 328 328 325 323 320 316 312 310 307 306 304 303 303 302 303 302 300 300 300 299 299 298 296 295 294 291 286 282 278 276 275 275 271 265 259 253 246 234 222 215 211 211 211 210
183 179 189 182 198 211 115 119 184 244 283 310 318 332 9 28 78 182 261 301 334 205 215 342 359 347 52 131 152 161 214 301 312 305 290 276 259 236 232 285 313 317 320 322 320 317 315 313 310 308 306 304 302 301 300 301 301 300 298 299 299 298 298 297 294 294 295 294 291 286 280 276 275 274 271 265 256 248 239 228 218 212 208 207 207 208
162 145 165 213 218 171 172 219 241 298 311 306 319 346 346 336 24 133 226 292 320 293 167 129 107 17 14 179 193 220 254 314 324 316 314 301 272 249 250 279 299 305 309 313 312 310 310 309 308 307 305 304 302 301 301 300 300 298 297 297 298 298 298 296 293 294 297 297 294 287 280 275 273 272 270 262 254 247 236 221 212 207 204 202 202 203
152 159 168 183 235 121 130 288 309 320 287 268 262 285 297 281 257 205 147 311 321 351 55 114 137 238 237 232 234 227 220 18 326 290 305 322 299 273 270 279 289 297 303 307 308 307 308 307 306 305 304 304 304 304 304 302 300 298 296 295 297 297 296 295 294 296 298 297 293 285 278 274 274 274 270 261 254 248 233 214 205 204 201 198 197 198
53 41 115 137 254 88 133 234 244 213 243 249 245 279 316 319 239 166 87 284 276 357 6 8 296 284 275 264 242 184 123 77 237 266 299 315 307 291 284 286 293 299 303 306 307 308 308 307 305 304 305 305 306 308 307 304 302 299 296 297 297 295 292 292 295 297 297 294 291 284 278 276 275 274 270 261 254 244 225 209 202 201 196 191 193 195
19 16 57 121 244 223 165 211 238 229 244 245 243 284 323 342 121 128 68 258 264 325 344 340 308 305 302 285 244 164 168 220 251 287 305 309 303 297 296 298 302 304 305 307 308 307 306 305 305 304 305 307 309 311 310 307 304 300 298 299 298 293 291 293 294 294 294 292 288 283 279 276 274 274 270 261 252 239 220 206 199 192 187 188 196 200
358 353 9 150 212 216 192 222 273 264 238 244 277 307 333 352 98 155 217 243 268 296 314 315 304 309 311 291 243 213 243 267 283 296 302 302 300 298 299 301 303 303 304 305 305 305 304 303 304 304 305 309 313 314 313 310 305 301 300 299 295 292 293 293 291 291 291 288 284 280 277 273 270 269 266 260 250 231 211 199 190 184 185 192 198 198
351 339 335 21 190 231 188 189 287 290 243 213 311 341 358 20 181 234 277 291 294 293 295 295 291 301 310 298 276 272 284 293 298 299 300 301 300 300 301 301 301 301 302 302 302 303 303 302 302 303 306 310 314 314 313 310 304 301 299 296 292 293 293 290 288 289 287 283 279 276 274 268 259 255 254 248 233 213 198 191 185 182 185 187 188 191
188 272 307 260 218 267 107 132 283 269 246 247 318 8 39 80 258 287 299 303 303 301 300 297 295 302 306 300 296 296 299 301 302 302 304 305 304 304 303 302 302 302 302 302 301 301 301 300 300 302 305 309 312 313 312 307 301 299 296 291 291 293 292 287 286 285 282 278 275 272 269 261 251 249 244 227 209 194 186 182 177 172 175 180 184 190
210 196 254 251 227 103 167 192 203 208 218 338 315 243 332 322 306 300 296 292 290 291 295 301 305 309 308 305 306 307 304 304 305 306 309 309 308 306 304 302 302 300 300 301 301 301 299 297 298 300 303 307 310 310 308 304 299 296 292 289 290 292 288 283 283 282 277 274 272 267 259 249 245 239 220 202 192 183 174 169 167 166 171 176 175 172
223 176 189 225 238 218 215 234 261 274 286 303 287 268 307 320 314 304 295 286 278 275 290 305 305 307 311 311 309 307 304 304 304 306 307 307 306 304 302 301 299 298 298 298 299 300 298 296 296 299 301 305 308 306 304 302 298 294 291 290 290 288 283 281 281 279 273 271 268 258 245 239 234 218 197 187 183 174 165 164 164 163 161 160 157 154
291 313 204 205 254 294 273 259 265 276 286 293 287 291 306 311 310 312 310 295 273 271 296 308 306 306 311 310 306 303 301 300 300 301 301 301 301 301 300 299 297 296 295 294 295 297 297 295 296 298 302 305 305 302 300 299 297 293 291 289 285 281 279 279 278 276 273 270 260 244 233 223 207 189 176 170 165 159 154 155 156 154 152 153 156 155
299 323 272 223 279 313 294 279 290 292 294 298 299 302 307 309 311 322 322 308 290 296 306 308 306 307 309 308 305 302 300 299 299 298 297 297 297 298 298 297 296 296 295 294 294 294 294 294 296 299 302 303 303 301 299 297 295 292 288 283 276 273 273 275 273 269 264 258 242 226 213 198 180 168 159 153 150 149 148 152 155 152 144 145 156 156
298 10 347 239 246 253 262 286 295 292 291 294 297 300 307 312 316 320 317 307 301 307 308 305 304 304 305 305 304 301 300 298 297 296 295 295 295 295 295 294 294 295 296 295 293 292 293 294 297 300 301 301 301 301 299 296 293 289 284 278 274 270 267 266 262 253 245 237 224 206 189 174 163 157 154 152 153 153 152 152 152 152 149 151 157 153
266 309 296 255 276 285 284 288 290 290 292 296 298 299 302 306 310 313 312 303 298 302 304 302 301 300 300 301 301 299 296 294 293 292 292 292 292 292 291 291 292 294 294 292 291 292 293 294 298 300 300 300 301 301 297 292 288 285 282 278 274 267 258 249 242 236 225 209 192 178 167 158 152 149 147 146 145 145 145 144 149 159 165 160 150 133
259 276 272 281 296 278 265 279 288 291 289 291 297 302 304 305 308 308 304 298 295 298 300 300 299 299 298 299 298 296 293 291 290 291 291 290 290 291 291 291 292 292 291 291 292 292 293 296 299 300 299 299 299 296 291 288 287 286 284 280 272 256 238 224 216 210 195 176 162 156 151 146 142 140 136 134 136 142 149 155 161 165 160 146 131 113
235 249 250 238 255 261 269 282 288 287 276 283 294 300 302 304 304 302 299 297 297 298 300 299 298 299 300 300 299 297 294 293 294 294 292 290 289 290 291 291 290 289 289 291 292 292 295 298 299 298 298 297 293 289 287 285 284 284 282 279 262 226 212 207 197 183 168 156 148 143 139 136 135 137 137 138 145 154 159 160 160 158 148 133 116 97